Hourly Data Report for March 18, 2011

HALIFAX STANFIELD INT'L A
NOVA SCOTIA

44°52'48.060" N
63°30'00.050" W
145.40 m
8202250
71395
YHZ

Download Data

Hourly Data (March 2011)
Hourly Data Report for March 18, 2011
TIME
LST
Temp Definition
°C
Dew Point Definition
°C
Rel Hum Definition
%
Precip. Amount Definition
mm

Wind Dir Definition
10's deg

Wind Spd Definition
km/h
Visibility Definition
km
Stn Press Definition
kPa
Hmdx Definition


Wind Chill Definition


Weather Definition


00:00 1.2 -0.9 86   21 15 24.1 99.64     Mainly Clear
01:00 1.3 -0.7 87   21 19 24.1 99.63     Mainly Clear
02:00 0.9 -0.5 90   21 19 24.1 99.56     Mostly Cloudy
03:00 0.8 -0.5 91   21 17 24.1 99.49     Mostly Cloudy
04:00 0.6 -0.5 92   20 19 24.1 99.42     Mostly Cloudy
05:00 0.5 -0.4 94   20 19 24.1 99.41     Mostly Cloudy
06:00 0.9 -0.3 92   19 24 24.1 99.31     Cloudy
07:00 0.9 -0.2 92   18 20 24.1 99.20     Cloudy
08:00 1.8 0.5 91   18 28 19.3 99.07     Cloudy
09:00 1.5 0.3 92   18 41 4.8 98.88     Fog
10:00 1.8 0.3 90   18 37 6.4 98.69     Fog
11:00 4.3 1.1 80   19 59 19.3 98.54     Cloudy
12:00 4.9 1.5 79   19 63 12.9 98.23     Rain Showers
13:00 4.8 1.2 77   19 63 19.3 98.05     Cloudy
14:00 4.6 1.5 80   20 54 24.1 97.97     Rain
15:00 4.7 2.4 85   21 50 24.1 97.87     Mostly Cloudy
16:00 7.3 3.3 76   21 33 24.1 97.77     Mostly Cloudy
17:00 8.1 3.8 74   21 33 24.1 97.78     Mostly Cloudy
18:00 8.2 4.1 75   22 19 24.1 97.85     Mainly Clear
19:00 10.2 3.2 62   29 22 24.1 97.98     Mostly Cloudy
20:00 7.0 1.5 68   29 32 24.1 98.22     Mostly Cloudy
21:00 0.3 -3.4 76   34 43 24.1 98.60     Cloudy
22:00 -1.3 -5.0 76   33 46 24.1 98.72   -10 Cloudy
23:00 -1.8 -5.6 75   34 32 24.1 98.88   -9 Cloudy

Notes on Data Quality.

Legend

  • E = Estimated
  • M = Missing
  • NA = Not Available*
  • [empty] = Indicates an unobserved value
Date modified: